Regional Weather Roundup
Issued by NWS Green Bay, WI

Home | Current Version | Previous Version | Graphics & Text | Print | Product List | Glossary Off
Versions: 1 2 3 4 5 6 7 8 9 10 11 12 13 14 15 16 17 18 19 20 21 22 23 24 25 26 27 28 29 30 31 32 33 34 35 36 37 38 39 40 41 42 43 44 45 46 47 48 49 50

000
ASUS43 KGRB 150200
RWRGRB

NORTH-CENTRAL AND NORTHEAST WISCONSIN REGIONAL WEATHER ROUNDUP
NATIONAL WEATHER SERVICE GREEN BAY WI
800 PM CST THU DEC 14 2017

WIZ005-009-010>012-018-019-150300-
NORTH CENTRAL WISCONSIN

CITY           SKY/WX    TMP DP  RH WIND       PRES   REMARKS
IRONWOOD       FLURRIES  16  12  84 W12       29.89S WCI   3
MANITOWISH WTR NOT AVBL
ARBOR VITAE    NOT AVBL
EAGLE RIVER    LGT SNOW  15  11  86 CALM      29.86F
LAND O LAKES   LGT SNOW  15  12  89 CALM      29.87F
RHINELANDER    LGT SNOW  17  14  88 W7        29.87F FOG     WCI   8
PHILLIPS       LGT SNOW  16  13  91 W3        29.89F
ANTIGO         NOT AVBL
TOMAHAWK       NOT AVBL
MERRILL        LGT SNOW  19  16  88 W6        29.92F
$$

WIZ013-073-150300-
NORTHEAST WISCONSIN

CITY           SKY/WX    TMP DP  RH WIND       PRES   REMARKS
IRON MOUNTAIN  CLOUDY    16  10  77 CALM      29.89F
MARINETTE      FLURRIES  19  14  81 SW3       29.98F
$$

WIZ017-030-035>037-045-150300-
CENTRAL WISCONSIN

CITY           SKY/WX    TMP DP  RH WIND       PRES   REMARKS
MEDFORD        NOT AVBL
WAUSAU         CLOUDY    19  15  84 SW5       29.92F
MOSINEE        CLOUDY    19  16  86 SW5       29.94F
MARSHFIELD     CLOUDY    20  15  81 W5        29.93F
WISC RAPIDS    CLOUDY    21  12  68 SW8       29.97F
STEVENS POINT  NOT AVBL
WAUPACA        CLOUDY    23  16  75 S3        29.99F
SHAWANO        NOT AVBL
CLINTONVILLE   NOT AVBL
WAUTOMA        FLURRIES  22  14  71 SW5       29.99F
$$

WIZ038-039-048-051-150300-
FOX VALLEY

CITY           SKY/WX    TMP DP  RH WIND       PRES   REMARKS
NWS GREEN BAY  FLURRIES  21  14  74 SW6       29.99F
APPLETON       FLURRIES  19  12  73 SW5       29.97F
OSHKOSH        CLOUDY    21  14  74 SW7       30.00S
FOND DU LAC    CLOUDY    22  11  62 SW6       30.01S
$$

WIZ022-050-052-150300-
EAST CENTRAL WISCONSIN

CITY           SKY/WX    TMP DP  RH WIND       PRES   REMARKS
EPHRAIM        NOT AVBL
WASHINGTON ISL NOT AVBL
STURGEON BAY   CLOUDY    18  14  84 S6        29.98F WCI  10
MANITOWOC      CLOUDY    19  12  74 SW8       30.02F WCI   9
SHEBOYGAN      CLOUDY    17  12  80 SW6       30.01F WCI   9
$$

LMZ563-521-522-541>543-150300-
LAKESHORE

STATION/POSITION TIME  TEMP    WIND        PRES    VSBY  WAVE
                       AIR SEA DIR/SP/G                  HT/PER
                 (UTC) (F)     (DEG/KT/KT) (MB)    (MI)  (FT/S)
SHEBOYGAN LKSHOR 0100   19     230/  9/ 11 1018.3R
KEWAUNEE LKSHORE 0130   19     220/  3/  4 1015.2F
NORTHPORT PIER   0140   22     290/  3/ 10 1014.6F
MENOMINEE LKSHOR 0130   21     200/  4/  5 1014.8F
$$



USA.gov is the U.S. government's official web portal to all federal, state and local government web resources and services.